Location: downtown San Diego
(32.7310°N, 117.1990°W)
Time: 03:32:45
(UTC-07:00)

Cosmos 1470 - Pass Details

Date: 14 June 2018
Orbit: 521 x 545 km, 82.5° (Epoch: 20 June)

Event Time Altitude Azimuth Distance (km) Brightness Sun altitude
Rises 22:08:58 0° 342° (NNW) 2,657 7.5 -22.2°
Reaches altitude 10° 22:11:14 10° 333° (NNW) 1,767 6.5 -22.5°
Maximum altitude 22:14:45 34° 268° (W) 889 4.1 -22.9°
Enters shadow 22:15:48 28° 236° (SW) 1,000 4.1 -23.1°
